Location: Newark
(49.2191°N, 12.6671°E)
Time: 21:06:24
(UTC+00:00)

Transit 2A - Pass Details

Date: 01 February 2020
Orbit: 600 x 959 km, 66.7° (Epoch: 22 February)

Event Time Altitude Azimuth Distance (km) Brightness Sun altitude
Rises 17:17:48 0° 203° (SSW) 2,873 9.5 -12.1°
Reaches altitude 10° 17:20:05 10° 199° (SSW) 1,952 8.5 -12.4°
Maximum altitude 17:24:21 57° 121° (ESE) 708 5.6 -13.1°
Enters shadow 17:27:38 16° 46° (NE) 1,581 7.2 -13.6°
